Charles B. Wheeler Downtown Airport
KMKC : now visible

Airfield :











YOU CAN JOIN US ON...

 
LOGIN :

Register | Disclaimer

   EN    FR    IT 

 









Legend :    VFR   Marginal VFR   IFR   Intensive IFR   Very Intensive IFR
Visi :
Ceiling :
>= 8 km
>= 3000ft
5 to 8 km
1000 to 3000 ft
1500m to 5 km
500 to 1000 ft
800 to 1500m
200 to 500 ft
< 800m
< 200 ft
Symbols :   Thunderstorms  Fog  Heavy snow  Heavy precipitations  Wind > 20 kt






- Airport Elevation : 759 ft
- IATA code : MKC


KMKC - Charles B. Wheeler Downtown

CURRENT METAR :
  • 142154Z 12009KT 10SM BKN047 33/21 A2990 RMK AO2 SLP116 T03280211

EXPIRED METARs :
  • 142054Z 15007KT 10SM SCT048 32/21 A2991 RMK AO2 SLP120 T03220211 58012
  • 141954Z 11006KT 10SM SCT044 32/21 A2992 RMK AO2 SLP122 T03220206

TAF KMKC
Valid from the 14 at 18:00 until the 15 at 18:00 UTC


141720Z 1418/1518 15006KT P6SM SCT025
FM150100 14005KT P6SM FEW030 SCT150
FM150900 36007KT P6SM VCSH BKN035 BKN060
FM151200 36005KT P6SM SCT030
KZKC FIR / North America



MET'MAP, your aeronautical weather chart ! - Copyright ORBIFLY December 2007 - Disclaimer

ORBIFLY MET'MAP TEAM :

Programming & Development : Alexandra Zaïnal
Concept & original design : Baudouin d'Aumeries
Assistance for programming : Marc-Olivier Méhu
Technical & hardware support : Manuel Goepfert

Contact : metmap@orbifly.com




SOURCES & CREDITS :

   NOAA       Earth
Advisory